map of IOS home
IOS - Airport
Location
City:  Ilhéus, Bahia, Brazil
Near (Alt.):Bahia
Name:Jorge Amado Airport
ICAO:SBIL
IATA:IOS

Details
Type:Airport (Aerodrome, Airfield)
Use:Public/Civil
Latitude:14°48'57"S (-14.815963)
Longitude:39°02'00"W (-39.033196)
Datum:WGS 1984
Elevation:15 ft (5 m)
Variation:23.66°W (WMM2015 magnetic declination)
-0.04° annual change
Runways:1
Longest:5174 × 148 ft (1577 × 45 m), paved

Time
Time Zone:UTC-3
Local Time:

Weather
METAR:SBIL 240600Z 24005KT 9999 FEW025 23/21 Q1013
TAF:SBIL 240200Z 2406/2418 25005KT 7000 SCT017 TN23/2407Z TX29/2415Z
TEMPO 2406/2408 6000 RA SCT015 BKN015
BECMG 2410/2412 14010KT
TEMPO 2415/2417 5000 RA SCT015 BKN020
RMK PEI

Related Locations
Nearby:
Farthest:GUM: 12174 mi / 19592 km
Agana [Guam Intl (Antonio B. Won Pat Intl)], GU, US

Find:

   beyond  
but within

Other Information
Maps:
NOTAMs:
Links:
Sources:

  
flag of Brazil
flag of Bahia
  

Sectional Chart

Flight Planning
at skyvector.com

Satellite Image

Google Maps Satellite view

 

Copyright © 2004-2017 Karl L. Swartz. All rights reserved.
The Great Circle Mapper name and logo are trademarks of the Great Circle Mapper.
All other trademarks mentioned herein belong to their respective owners.
Please see credits for attibutions and further copyright information.

  Follow gcmap on Facebook Follow gcmap on Twitter Follow gcmap on Google+ GCmap on LinkedIn

hCard Microformat

Geo Microformat